Time,TemperatureF,DewpointF,PressureIn,WindDirection,WindDirectionDegrees,WindSpeedMPH,WindSpeedGustMPH,Humidity,HourlyPrecipIn,Conditions,Clouds,dailyrainin,SoftwareType,DateUTC
2013-06-26 00:10:00,81.2,67.9,29.78,NE,38,10.0,10.0,64,0.00,,,0.00,Wunderground v.1.15,2013-06-25 21:10:00,
2013-06-26 00:20:00,81.0,67.7,29.78,ESE,113,10.0,10.0,64,0.00,,,0.00,Wunderground v.1.15,2013-06-25 21:20:00,
2013-06-26 00:35:00,80.8,67.0,29.78,NE,34,9.0,15.0,63,0.00,,,0.00,Wunderground v.1.15,2013-06-25 21:35:00,
2013-06-26 00:50:00,80.7,66.9,29.78,NNE,15,8.0,8.0,63,0.00,,,0.00,Wunderground v.1.15,2013-06-25 21:50:00,
2013-06-26 01:05:00,80.6,66.8,29.78,East,89,7.0,7.0,63,0.00,,,0.00,Wunderground v.1.15,2013-06-25 22:05:00,
2013-06-26 01:10:00,80.5,66.7,29.78,North,355,8.0,13.0,63,0.00,,,0.00,Wunderground v.1.15,2013-06-25 22:10:00,
2013-06-26 01:20:00,80.2,67.4,29.78,NNE,33,8.0,10.0,65,0.00,,,0.00,Wunderground v.1.15,2013-06-25 22:20:00,
2013-06-26 01:25:00,80.2,67.8,29.78,NE,47,7.0,10.0,66,0.00,,,0.00,Wunderground v.1.15,2013-06-25 22:25:00,
2013-06-26 01:35:00,79.8,67.4,29.78,North,355,6.0,7.0,66,0.00,,,0.00,Wunderground v.1.15,2013-06-25 22:35:00,
2013-06-26 01:50:00,79.5,67.6,29.78,ENE,58,8.0,9.0,67,0.00,,,0.00,Wunderground v.1.15,2013-06-25 22:50:00,
2013-06-26 01:55:00,79.4,67.5,29.78,NE,35,8.0,9.0,67,0.00,,,0.00,Wunderground v.1.15,2013-06-25 22:55:00,
2013-06-26 02:05:00,79.4,67.5,29.78,NE,55,7.0,8.0,67,0.00,,,0.00,Wunderground v.1.15,2013-06-25 23:05:00,
2013-06-26 02:20:00,79.4,66.6,29.78,North,360,7.0,7.0,65,0.00,,,0.00,Wunderground v.1.15,2013-06-25 23:20:00,
2013-06-26 02:25:00,79.4,66.6,29.78,NNE,15,6.0,7.0,65,0.00,,,0.00,Wunderground v.1.15,2013-06-25 23:25:00,
2013-06-26 02:35:00,79.3,66.5,29.78,NE,36,7.0,8.0,65,0.00,,,0.00,Wunderground v.1.15,2013-06-25 23:35:00,
2013-06-26 02:40:00,79.3,66.5,29.78,NNE,30,7.0,8.0,65,0.00,,,0.00,Wunderground v.1.15,2013-06-25 23:40:00,
2013-06-26 02:50:00,79.3,66.5,29.78,NNE,31,7.0,7.0,65,0.00,,,0.00,Wunderground v.1.15,2013-06-25 23:50:00,
2013-06-26 03:05:00,79.1,66.3,29.78,NNE,30,7.0,7.0,65,0.00,,,0.00,Wunderground v.1.15,2013-06-26 00:05:00,
2013-06-26 03:10:00,79.0,66.2,29.78,NNE,21,7.0,7.0,65,0.00,,,0.00,Wunderground v.1.15,2013-06-26 00:10:00,
2013-06-26 03:20:00,78.9,66.1,29.77,North,355,6.0,6.0,65,0.00,,,0.00,Wunderground v.1.15,2013-06-26 00:20:00,
2013-06-26 03:35:00,78.9,66.1,29.77,NE,37,5.0,5.0,65,0.00,,,0.00,Wunderground v.1.15,2013-06-26 00:35:00,
2013-06-26 03:40:00,78.9,66.1,29.77,NNE,24,5.0,7.0,65,0.00,,,0.00,Wunderground v.1.15,2013-06-26 00:40:00,
2013-06-26 03:50:00,78.7,65.5,29.77,NNE,29,6.0,9.0,64,0.00,,,0.00,Wunderground v.1.15,2013-06-26 00:50:00,
2013-06-26 03:55:00,78.8,65.1,29.77,North,9,7.0,10.0,63,0.00,,,0.00,Wunderground v.1.15,2013-06-26 00:55:00,
2013-06-26 04:05:00,78.6,64.9,29.77,ENE,57,8.0,8.0,63,0.00,,,0.00,Wunderground v.1.15,2013-06-26 01:05:00,
2013-06-26 04:20:00,78.4,65.2,29.77,NE,36,7.0,7.0,64,0.00,,,0.00,Wunderground v.1.15,2013-06-26 01:20:00,
2013-06-26 04:35:00,78.3,64.7,29.76,ENE,57,4.0,4.0,63,0.00,,,0.00,Wunderground v.1.15,2013-06-26 01:35:00,
2013-06-26 04:50:00,78.3,64.7,29.76,NE,52,2.0,2.0,63,0.00,,,0.00,Wunderground v.1.15,2013-06-26 01:50:00,
2013-06-26 05:05:00,78.2,65.0,29.77,NE,44,2.0,5.0,64,0.00,,,0.00,Wunderground v.1.15,2013-06-26 02:05:00,
2013-06-26 05:20:00,78.1,64.9,29.77,NNE,28,3.0,6.0,64,0.00,,,0.00,Wunderground v.1.15,2013-06-26 02:20:00,
2013-06-26 05:25:00,78.0,64.8,29.77,NNE,19,3.0,6.0,64,0.00,,,0.00,Wunderground v.1.15,2013-06-26 02:25:00,
2013-06-26 05:35:00,77.9,65.2,29.77,North,360,5.0,5.0,65,0.00,,,0.00,Wunderground v.1.15,2013-06-26 02:35:00,
2013-06-26 05:50:00,77.5,64.8,29.77,NNE,22,6.0,6.0,65,0.00,,,0.00,Wunderground v.1.15,2013-06-26 02:50:00,
2013-06-26 06:05:00,77.3,64.2,29.77,NNE,30,5.0,5.0,64,0.00,,,0.00,Wunderground v.1.15,2013-06-26 03:05:00,
2013-06-26 06:10:00,77.2,64.1,29.77,NNE,28,6.0,6.0,64,0.00,,,0.00,Wunderground v.1.15,2013-06-26 03:10:00,
2013-06-26 06:20:00,77.1,64.4,29.78,NE,56,5.0,5.0,65,0.00,,,0.00,Wunderground v.1.15,2013-06-26 03:20:00,
2013-06-26 06:35:00,77.2,65.0,29.78,NE,36,8.0,8.0,66,0.00,,,0.00,Wunderground v.1.15,2013-06-26 03:35:00,
2013-06-26 06:50:00,77.1,65.3,29.78,NNE,32,7.0,7.0,67,0.00,,,0.00,Wunderground v.1.15,2013-06-26 03:50:00,
2013-06-26 06:55:00,77.1,65.3,29.78,NE,42,6.0,7.0,67,0.00,,,0.00,Wunderground v.1.15,2013-06-26 03:55:00,
2013-06-26 07:05:00,77.1,65.7,29.79,North,5,6.0,6.0,68,0.00,,,0.00,Wunderground v.1.15,2013-06-26 04:05:00,
2013-06-26 07:10:00,77.1,65.3,29.79,ENE,57,6.0,6.0,67,0.00,,,0.00,Wunderground v.1.15,2013-06-26 04:10:00,
2013-06-26 07:20:00,77.2,65.8,29.79,NNE,13,5.0,12.0,68,0.00,,,0.00,Wunderground v.1.15,2013-06-26 04:20:00,
2013-06-26 07:25:00,77.2,65.8,29.79,NNE,24,6.0,12.0,68,0.00,,,0.00,Wunderground v.1.15,2013-06-26 04:25:00,
2013-06-26 07:35:00,77.7,65.9,29.79,NNE,21,5.0,9.0,67,0.00,,,0.00,Wunderground v.1.15,2013-06-26 04:35:00,
2013-06-26 07:50:00,78.1,66.2,29.79,ENE,65,6.0,6.0,67,0.00,,,0.00,Wunderground v.1.15,2013-06-26 04:50:00,
2013-06-26 08:05:00,78.8,66.5,29.79,NE,51,4.0,4.0,66,0.00,,,0.00,Wunderground v.1.15,2013-06-26 05:05:00,
2013-06-26 08:10:00,79.1,66.3,29.79,NNE,13,3.0,4.0,65,0.00,,,0.00,Wunderground v.1.15,2013-06-26 05:10:00,
2013-06-26 08:20:00,79.4,66.6,29.79,NNE,21,4.0,5.0,65,0.00,,,0.00,Wunderground v.1.15,2013-06-26 05:20:00,
2013-06-26 08:25:00,79.8,67.0,29.79,NNE,25,4.0,5.0,65,0.00,,,0.00,Wunderground v.1.15,2013-06-26 05:25:00,
2013-06-26 08:35:00,80.2,66.5,29.79,NNE,17,4.0,4.0,63,0.00,,,0.00,Wunderground v.1.15,2013-06-26 05:35:00,
2013-06-26 08:50:00,80.5,66.7,29.80,NE,48,5.0,5.0,63,0.00,,,0.00,Wunderground v.1.15,2013-06-26 05:50:00,
2013-06-26 09:05:00,80.9,67.1,29.79,NE,56,5.0,5.0,63,0.00,,,0.00,Wunderground v.1.15,2013-06-26 06:05:00,
2013-06-26 09:10:00,81.1,67.3,29.79,NNE,19,4.0,5.0,63,0.00,,,0.00,Wunderground v.1.15,2013-06-26 06:10:00,
2013-06-26 09:20:00,81.8,67.5,29.79,North,10,4.0,4.0,62,0.00,,,0.00,Wunderground v.1.15,2013-06-26 06:20:00,
2013-06-26 09:35:00,82.2,67.4,29.80,ENE,71,5.0,5.0,61,0.00,,,0.00,Wunderground v.1.15,2013-06-26 06:35:00,
2013-06-26 09:40:00,82.6,67.8,29.79,ENE,57,5.0,7.0,61,0.00,,,0.00,Wunderground v.1.15,2013-06-26 06:40:00,
2013-06-26 09:50:00,83.0,67.7,29.79,NE,36,6.0,6.0,60,0.00,,,0.00,Wunderground v.1.15,2013-06-26 06:50:00,
2013-06-26 10:05:00,84.0,68.6,29.79,NE,36,6.0,6.0,60,0.00,,,0.00,Wunderground v.1.15,2013-06-26 07:05:00,
2013-06-26 10:20:00,83.4,69.9,29.79,NNE,17,7.0,10.0,64,0.00,,,0.00,Wunderground v.1.15,2013-06-26 07:20:00,
2013-06-26 10:35:00,83.9,70.0,29.79,North,360,7.0,7.0,63,0.00,,,0.00,Wunderground v.1.15,2013-06-26 07:35:00,
2013-06-26 10:40:00,84.0,70.0,29.79,East,84,6.0,7.0,63,0.00,,,0.00,Wunderground v.1.15,2013-06-26 07:40:00,
2013-06-26 10:50:00,84.8,70.3,29.79,NE,46,5.0,5.0,62,0.00,,,0.00,Wunderground v.1.15,2013-06-26 07:50:00,
2013-06-26 11:05:00,85.6,70.6,29.80,NNW,340,6.0,6.0,61,0.00,,,0.00,Wunderground v.1.15,2013-06-26 08:05:00,
2013-06-26 11:20:00,86.4,70.9,29.80,North,5,4.0,5.0,60,0.00,,,0.00,Wunderground v.1.15,2013-06-26 08:20:00,
2013-06-26 11:25:00,86.9,71.3,29.80,NNW,348,4.0,5.0,60,0.00,,,0.00,Wunderground v.1.15,2013-06-26 08:25:00,
2013-06-26 11:35:00,86.9,71.8,29.80,NNW,348,6.0,6.0,61,0.00,,,0.00,Wunderground v.1.15,2013-06-26 08:35:00,
2013-06-26 11:50:00,86.3,72.7,29.81,North,5,6.0,7.0,64,0.00,,,0.00,Wunderground v.1.15,2013-06-26 08:50:00,
2013-06-26 12:05:00,85.9,73.2,29.81,NW,325,5.0,7.0,66,0.00,,,0.00,Wunderground v.1.15,2013-06-26 09:05:00,
2013-06-26 12:20:00,86.0,72.4,29.81,North,360,7.0,7.0,64,0.00,,,0.00,Wunderground v.1.15,2013-06-26 09:20:00,
2013-06-26 12:35:00,85.7,72.1,29.81,North,355,8.0,8.0,64,0.00,,,0.00,Wunderground v.1.15,2013-06-26 09:35:00,
2013-06-26 12:50:00,86.7,71.6,29.81,NNW,339,7.0,7.0,61,0.00,,,0.00,Wunderground v.1.15,2013-06-26 09:50:00,
2013-06-26 13:05:00,87.5,71.9,29.81,NNW,344,6.0,6.0,60,0.00,,,0.00,Wunderground v.1.15,2013-06-26 10:05:00,
2013-06-26 13:20:00,87.4,72.8,29.81,NW,315,7.0,7.0,62,0.00,,,0.00,Wunderground v.1.15,2013-06-26 10:20:00,
2013-06-26 13:25:00,86.9,72.3,29.81,North,350,8.0,9.0,62,0.00,,,0.00,Wunderground v.1.15,2013-06-26 10:25:00,
2013-06-26 13:35:00,85.9,71.4,29.81,NNW,346,10.0,10.0,62,0.00,,,0.00,Wunderground v.1.15,2013-06-26 10:35:00,
2013-06-26 13:50:00,86.3,69.3,29.80,NW,326,9.0,13.0,57,0.00,,,0.00,Wunderground v.1.15,2013-06-26 10:50:00,
2013-06-26 13:55:00,86.7,70.2,29.81,North,355,9.0,13.0,58,0.00,,,0.00,Wunderground v.1.15,2013-06-26 10:55:00,
2013-06-26 14:05:00,87.7,69.5,29.81,NW,310,7.0,7.0,55,0.00,,,0.00,Wunderground v.1.15,2013-06-26 11:05:00,
2013-06-26 14:20:00,89.6,70.8,29.81,North,349,5.0,5.0,54,0.00,,,0.00,Wunderground v.1.15,2013-06-26 11:20:00,
2013-06-26 14:25:00,89.8,70.9,29.80,NNE,22,5.0,7.0,54,0.00,,,0.00,Wunderground v.1.15,2013-06-26 11:25:00,
2013-06-26 14:35:00,90.1,70.7,29.81,NW,319,5.0,6.0,53,0.00,,,0.00,Wunderground v.1.15,2013-06-26 11:35:00,
2013-06-26 14:40:00,90.1,70.1,29.81,WNW,303,5.0,6.0,52,0.00,,,0.00,Wunderground v.1.15,2013-06-26 11:40:00,
2013-06-26 14:50:00,89.8,70.4,29.81,NNW,337,5.0,5.0,53,0.00,,,0.00,Wunderground v.1.15,2013-06-26 11:50:00,
2013-06-26 14:55:00,89.5,70.1,29.81,NW,311,4.0,5.0,53,0.00,,,0.00,Wunderground v.1.15,2013-06-26 11:55:00,
2013-06-26 15:05:00,87.8,71.2,29.81,NNW,327,7.0,7.0,58,0.00,,,0.00,Wunderground v.1.15,2013-06-26 12:05:00,
2013-06-26 15:20:00,87.5,70.4,29.81,NW,312,5.0,7.0,57,0.00,,,0.00,Wunderground v.1.15,2013-06-26 12:20:00,
2013-06-26 15:35:00,88.4,69.6,29.80,WNW,293,5.0,5.0,54,0.00,,,0.00,Wunderground v.1.15,2013-06-26 12:35:00,
2013-06-26 15:50:00,89.6,69.6,29.80,WNW,285,4.0,5.0,52,0.00,,,0.00,Wunderground v.1.15,2013-06-26 12:50:00,
2013-06-26 16:05:00,89.7,70.3,29.80,WNW,284,4.0,5.0,53,0.00,,,0.00,Wunderground v.1.15,2013-06-26 13:05:00,
2013-06-26 16:20:00,88.7,71.5,29.80,WNW,299,5.0,5.0,57,0.00,,,0.00,Wunderground v.1.15,2013-06-26 13:20:00,
2013-06-26 16:25:00,87.6,71.5,29.80,NW,305,5.0,5.0,59,0.00,,,0.00,Wunderground v.1.15,2013-06-26 13:25:00,
2013-06-26 16:35:00,86.6,73.0,29.80,WNW,297,4.0,4.0,64,0.00,,,0.00,Wunderground v.1.15,2013-06-26 13:35:00,
2013-06-26 16:50:00,84.6,75.8,29.80,WNW,294,7.0,10.0,75,0.00,,,0.00,Wunderground v.1.15,2013-06-26 13:50:00,
2013-06-26 17:05:00,82.9,75.7,29.80,West,272,6.0,6.0,79,0.00,,,0.00,Wunderground v.1.15,2013-06-26 14:05:00,
2013-06-26 17:10:00,83.3,76.5,29.80,WNW,296,5.0,7.0,80,0.00,,,0.00,Wunderground v.1.15,2013-06-26 14:10:00,
2013-06-26 17:20:00,83.6,77.1,29.80,WNW,298,4.0,4.0,81,0.00,,,0.00,Wunderground v.1.15,2013-06-26 14:20:00,
2013-06-26 17:35:00,84.1,77.3,29.80,WNW,287,3.0,7.0,80,0.00,,,0.00,Wunderground v.1.15,2013-06-26 14:35:00,
2013-06-26 17:50:00,83.7,77.2,29.80,WNW,296,6.0,10.0,81,0.00,,,0.00,Wunderground v.1.15,2013-06-26 14:50:00,
2013-06-26 18:05:00,82.3,77.7,29.80,NW,321,6.0,6.0,86,0.00,,,0.00,Wunderground v.1.15,2013-06-26 15:05:00,
2013-06-26 18:20:00,82.3,78.0,29.80,NW,326,4.0,6.0,87,0.00,,,0.00,Wunderground v.1.15,2013-06-26 15:20:00,
2013-06-26 18:35:00,81.5,76.9,29.80,WNW,286,7.0,7.0,86,0.00,,,0.00,Wunderground v.1.15,2013-06-26 15:35:00,
2013-06-26 18:40:00,81.2,76.3,29.81,NNW,337,7.0,8.0,85,0.00,,,0.00,Wunderground v.1.15,2013-06-26 15:40:00,
2013-06-26 18:50:00,81.1,76.2,29.81,WNW,293,7.0,7.0,85,0.00,,,0.00,Wunderground v.1.15,2013-06-26 15:50:00,
2013-06-26 19:05:00,81.3,76.4,29.81,NW,306,5.0,5.0,85,0.00,,,0.00,Wunderground v.1.15,2013-06-26 16:05:00,
2013-06-26 19:10:00,81.3,76.4,29.81,NW,309,5.0,5.0,85,0.00,,,0.00,Wunderground v.1.15,2013-06-26 16:10:00,
2013-06-26 19:20:00,81.2,76.3,29.81,WNW,282,6.0,13.0,85,0.00,,,0.00,Wunderground v.1.15,2013-06-26 16:20:00,
2013-06-26 19:35:00,81.1,76.2,29.81,WNW,287,5.0,5.0,85,0.00,,,0.00,Wunderground v.1.15,2013-06-26 16:35:00,
2013-06-26 19:50:00,81.1,75.8,29.82,North,355,4.0,4.0,84,0.00,,,0.00,Wunderground v.1.15,2013-06-26 16:50:00,
2013-06-26 20:05:00,80.9,75.2,29.82,NNE,24,5.0,5.0,83,0.00,,,0.00,Wunderground v.1.15,2013-06-26 17:05:00,
2013-06-26 20:20:00,80.9,74.9,29.82,North,355,5.0,5.0,82,0.00,,,0.00,Wunderground v.1.15,2013-06-26 17:20:00,
2013-06-26 20:25:00,81.0,75.0,29.82,NNW,340,3.0,5.0,82,0.00,,,0.00,Wunderground v.1.15,2013-06-26 17:25:00,
2013-06-26 20:35:00,80.9,74.9,29.82,North,360,6.0,10.0,82,0.00,,,0.00,Wunderground v.1.15,2013-06-26 17:35:00,
2013-06-26 20:50:00,80.8,74.8,29.83,NNW,339,8.0,8.0,82,0.00,,,0.00,Wunderground v.1.15,2013-06-26 17:50:00,
2013-06-26 21:05:00,80.9,74.5,29.83,NNW,347,7.0,8.0,81,0.00,,,0.00,Wunderground v.1.15,2013-06-26 18:05:00,
2013-06-26 21:10:00,80.9,74.1,29.83,NNW,344,6.0,8.0,80,0.00,,,0.00,Wunderground v.1.15,2013-06-26 18:10:00,
2013-06-26 21:20:00,81.1,74.3,29.83,North,11,6.0,6.0,80,0.00,,,0.00,Wunderground v.1.15,2013-06-26 18:20:00,
2013-06-26 21:35:00,81.2,74.1,29.83,North,360,6.0,6.0,79,0.00,,,0.00,Wunderground v.1.15,2013-06-26 18:35:00,
2013-06-26 21:50:00,81.5,74.4,29.84,NE,43,2.0,6.0,79,0.00,,,0.00,Wunderground v.1.15,2013-06-26 18:50:00,
2013-06-26 22:05:00,81.6,74.1,29.85,NNE,18,1.0,1.0,78,0.00,,,0.00,Wunderground v.1.15,2013-06-26 19:05:00,
2013-06-26 22:20:00,81.7,74.2,29.85,North,360,2.0,5.0,78,0.00,,,0.00,Wunderground v.1.15,2013-06-26 19:20:00,
2013-06-26 22:25:00,81.8,74.3,29.85,NNE,22,3.0,5.0,78,0.00,,,0.00,Wunderground v.1.15,2013-06-26 19:25:00,
2013-06-26 22:35:00,81.9,74.4,29.86,NNE,30,2.0,4.0,78,0.00,,,0.00,Wunderground v.1.15,2013-06-26 19:35:00,
2013-06-26 22:50:00,81.8,72.7,29.86,NNE,15,4.0,6.0,74,0.00,,,0.00,Wunderground v.1.15,2013-06-26 19:50:00,
2013-06-26 23:05:00,81.7,71.8,29.86,NE,46,4.0,7.0,72,0.00,,,0.00,Wunderground v.1.15,2013-06-26 20:05:00,
2013-06-26 23:20:00,81.7,71.8,29.86,NNE,33,2.0,4.0,72,0.00,,,0.00,Wunderground v.1.15,2013-06-26 20:20:00,
2013-06-26 23:25:00,81.7,71.8,29.86,NE,45,2.0,4.0,72,0.00,,,0.00,Wunderground v.1.15,2013-06-26 20:25:00,
2013-06-26 23:35:00,81.6,71.3,29.86,NNE,31,3.0,3.0,71,0.00,,,0.00,Wunderground v.1.15,2013-06-26 20:35:00,
2013-06-26 23:50:00,81.6,71.3,29.86,NE,41,3.0,3.0,71,0.00,,,0.00,Wunderground v.1.15,2013-06-26 20:50:00,
2013-06-26 23:55:00,81.5,71.2,29.86,ENE,68,2.0,3.0,71,0.00,,,0.00,Wunderground v.1.15,2013-06-26 20:55:00,